Tracking 28790 objects as of 18-Apr-2024
HD Live streaming from Space Station
objects crossing your sky now

GEOSAT

Track GEOSAT now!
10-day predictions
GEOSAT is classified as:


NORAD ID: 15595
Int'l Code: 1985-021A
Perigee: 767.7 km
Apogee: 770.7 km
Inclination: 108.1 °
Period: 100.1 minutes
Semi major axis: 7140 km
RCS: 9.5926 m2 (large)
Launch date: March 13, 1985
Source: United States (US)
Launch site: AIR FORCE WESTERN TEST RANGE (AFWTR)
Your satellite tracking list
Your tracking list is empty




NASA's NSSDC Master Catalog

Two Line Element Set (TLE):
1 15595U 85021A   24108.91905891  .00001010  00000-0  37078-3 0  9998
2 15595 108.0551 237.1148 0002113 276.9390  83.1511 14.38926907 49041
Source of the keplerian elements: AFSPC